Temp
74 74 73 72 72 71 69 69 67 68 69 68 68 67 67 66 65 64 63 63 62 61 61 59 58 58 57 56 57 55 53 52 46 50 54 56 54 53 55 54 56 55 56
76 74 72 71 71 69 67 68 69 68 68 69 69 68 68 67 66 64 63 64 62 61 61 60 58 60 55 55 55 53 52 52 47 46 51 52 52 54 53 52 54 56 55
75 73 71 70 69 68 68 69 69 68 68 69 69 67 67 66 66 65 64 64 63 62 61 59 58 56 54 54 54 53 52 49 48 47 48 52 53 53 52 52 52 53 56
74 72 70 69 68 68 70 69 69 69 68 68 68 68 67 67 66 65 65 63 61 61 60 59 59 57 54 53 52 51 51 48 49 48 48 48 50 52 50 49 48 52 51
74 71 69 69 70 70 69 68 68 69 68 68 67 67 66 66 69 63 63 61 60 59 59 60 59 59 60 56 52 51 50 48 47 47 46 46 47 48 46 49 46 49 50
72 70 70 70 70 69 68 68 68 68 68 67 65 65 64 68 57 58 57 58 59 57 56 57 58 59 58 56 55 54 52 48 46 45 45 44 45 46 48 46 46 45 43
71 72 72 71 70 68 69 68 68 67 66 64 64 64 63 64 54 55 54 59 56 56 56 55 56 58 55 54 54 53 52 52 51 48 44 45 44 46 45 44 45 45 45
71 72 73 71 71 70 70 68 66 65 65 64 64 63 63 62 51 51 55 56 57 56 57 55 54 53 52 49 50 50 50 51 50 50 48 48 48 48 46 45 45 45 48
71 70 72 72 70 70 68 68 67 65 64 63 63 63 62 62 50 48 52 58 57 56 57 56 53 52 48 46 47 46 46 48 51 50 49 48 46 46 46 45 43 43 42
71 70 71 70 72 71 69 66 65 65 63 64 63 62 62 61 51 47 52 57 53 52 53 53 53 50 45 44 43 42 41 43 44 46 47 48 49 49 48 48 46 42 41
71 70 69 69 69 70 68 66 65 64 63 61 61 62 63 61 53 48 49 53 51 50 50 51 51 44 43 42 42 42 41 43 44 43 44 44 47 48 49 49 49 46 44
67 68 66 68 70 69 66 64 64 62 61 60 62 63 64 57 50 48 48 48 47 47 45 44 44 42 41 41 41 42 42 42 42 42 41 42 43 46 46 47 49 48 51
66 67 67 69 69 68 65 63 63 63 63 63 63 61 61 62 56 48 46 45 45 44 44 44 42 41 41 42 43 43 43 42 41 40 40 41 44 45 46 46 50 50 50
66 66 65 65 64 64 65 65 65 64 63 63 61 59 59 57 50 50 48 46 43 43 44 43 44 43 43 43 42 42 42 41 41 40 41 42 44 44 43 44 46 48 47
65 64 63 62 60 64 64 63 65 65 60 60 57 55 52 48 45 41 41 41 41 41 40 43 42 41 39 39 40 40 41 41 40 40 40 41 40 41 43 43 45 48 46
61 63 60 61 62 63 63 65 53 51 45 44 43 48 51 43 41 40 39 39 39 39 40 38 37 37 36 37 37 38 39 39 39 39 40 41 39 39 40 42 45 46 45
61 61 62 61 62 64 65 66 64 51 45 46 43 43 43 41 39 40 39 38 38 39 37 36 36 36 36 36 37 37 36 37 38 38 39 39 39 39 39 41 44 45 44
61 54 61 67 67 66 66 66 66 63 56 53 44 46 41 41 40 39 38 39 38 38 37 35 35 35 35 35 36 36 36 37 37 38 38 38 39 38 39 41 43 42 41
64 65 64 67 69 66 68 67 66 62 59 57 55 46 44 41 40 39 39 38 36 36 36 35 36 35 35 35 36 36 36 37 37 38 38 38 38 39 39 42 42 38 39
63 55 56 63 68 67 67 66 64 60 57 54 49 44 43 41 39 39 39 38 37 36 36 36 36 36 36 35 35 35 36 37 38 38 38 38 39 40 41 41 42 43 44
63 63 49 70 67 66 66 65 62 58 55 52 49 43 35 39 38 38 37 37 37 37 37 37 37 37 37 36 35 35 36 38 38 38 39 39 40 41 41 42 43 44 45
68 69 67 67 67 66 65 64 61 55 54 50 46 44 36 40 38 38 37 37 38 38 39 38 38 38 37 37 36 36 37 37 38 39 39 39 41 41 42 43 44 44 45
68 68 67 65 66 55 64 61 57 55 51 48 43 41 41 39 38 38 37 38 39 39 40 40 39 39 38 39 38 38 38 38 39 41 40 40 41 41 42 44 44 44 44
68 67 67 67 65 64 61 58 55 47 49 45 42 41 40 39 38 38 38 39 39 41 42 42 41 41 41 40 40 40 39 39 42 42 42 41 41 42 45 45 45 44 44
67 66 66 64 64 62 60 55 54 51 48 44 42 41 40 40 39 38 39 40 41 42 43 43 42 42 42 43 43 42 36 34 40 37 42 44 44 46 46 47 46 45 45
65 65 64 65 64 61 58 54 52 49 46 43 42 41 41 39 38 38 39 40 41 43 44 44 45 45 44 43 40 35 34 34 38 34 43 46 46 46 46 47 47 46 46
MSLP
1010.59 1010.91 1011.33 1011.79 1012.23 1012.76 1013.18 1013.42 1013.73 1014.04 1014.25 1014.30 1014.36 1014.37 1014.38 1014.42 1014.48 1014.49 1014.54 1014.56 1014.45 1014.20 1014.21 1014.29 1014.31 1014.30 1014.31 1014.28 1014.34 1014.33 1014.46 1014.50 1013.98 1013.28 1013.04 1012.67 1012.42 1012.01 1011.78 1011.64 1011.30 1011.00 1010.50
1010.33 1010.94 1011.57 1012.03 1012.52 1013.01 1013.38 1013.64 1013.75 1013.96 1014.05 1014.02 1014.12 1014.15 1014.09 1014.03 1014.00 1014.04 1014.09 1013.99 1013.86 1013.75 1013.76 1013.87 1013.95 1013.92 1014.01 1014.02 1014.06 1014.08 1014.05 1014.06 1013.83 1013.11 1012.76 1012.43 1012.15 1011.61 1011.37 1011.21 1010.93 1010.49 1010.03
1010.32 1011.10 1011.70 1012.20 1012.70 1013.08 1013.35 1013.49 1013.63 1013.77 1013.83 1013.85 1013.89 1013.93 1013.86 1013.79 1013.73 1013.74 1013.68 1013.57 1013.43 1013.36 1013.39 1013.36 1013.41 1013.62 1013.68 1013.70 1013.72 1013.69 1013.77 1013.75 1013.41 1013.07 1012.55 1012.26 1011.75 1011.30 1011.05 1010.88 1010.66 1010.24 1009.65
1010.48 1011.20 1011.86 1012.34 1012.69 1012.90 1013.10 1013.40 1013.52 1013.62 1013.66 1013.71 1013.72 1013.65 1013.67 1013.62 1013.52 1013.38 1013.31 1013.27 1013.34 1013.37 1013.29 1013.13 1012.96 1013.08 1013.22 1013.23 1013.35 1013.17 1013.38 1013.32 1013.16 1012.84 1012.49 1012.20 1011.77 1011.04 1010.81 1010.68 1010.43 1010.07 1009.56
1010.49 1011.24 1011.96 1012.48 1012.64 1012.80 1013.14 1013.30 1013.27 1013.35 1013.52 1013.56 1013.54 1013.49 1013.48 1013.38 1013.08 1013.26 1013.30 1013.35 1013.34 1013.31 1013.19 1012.94 1012.68 1012.70 1012.61 1012.59 1012.76 1012.62 1012.90 1012.79 1012.84 1012.58 1012.22 1011.99 1011.61 1011.10 1010.95 1010.67 1010.43 1009.87 1009.31
1010.63 1011.35 1011.77 1012.10 1012.47 1012.70 1012.88 1013.10 1013.10 1013.18 1013.27 1013.41 1013.46 1013.42 1013.33 1013.22 1013.12 1013.31 1013.44 1013.47 1013.37 1013.29 1013.10 1012.83 1012.53 1012.37 1012.14 1012.06 1012.06 1012.12 1012.31 1012.29 1012.28 1012.24 1012.04 1011.76 1011.43 1011.29 1011.00 1010.78 1010.36 1009.89 1009.25
1010.97 1011.43 1011.69 1011.97 1012.30 1012.57 1012.82 1012.93 1012.92 1013.12 1013.23 1013.26 1013.29 1013.22 1013.05 1012.90 1013.04 1013.31 1013.35 1013.31 1013.16 1012.99 1012.81 1012.61 1012.29 1012.20 1012.26 1012.11 1011.82 1011.57 1011.53 1011.58 1011.62 1011.62 1011.62 1011.56 1011.37 1011.18 1011.05 1010.73 1010.47 1010.09 1009.48
1011.00 1011.13 1011.34 1011.82 1012.12 1012.27 1012.52 1012.72 1012.85 1012.98 1013.06 1012.99 1012.97 1012.91 1012.71 1012.52 1012.70 1012.74 1012.74 1012.59 1012.46 1012.32 1012.10 1011.91 1011.82 1011.74 1011.77 1011.89 1011.88 1011.41 1011.08 1010.85 1010.81 1010.84 1010.95 1010.97 1011.04 1010.97 1010.98 1010.77 1010.42 1009.84 1009.16
1010.83 1010.91 1011.04 1011.32 1011.76 1012.08 1012.44 1012.60 1012.67 1012.86 1012.90 1012.88 1012.73 1012.48 1012.28 1011.96 1012.20 1012.17 1012.37 1012.29 1012.14 1011.99 1011.83 1011.72 1011.59 1011.56 1011.58 1011.72 1011.68 1011.55 1011.19 1010.68 1010.46 1010.28 1010.34 1010.46 1010.51 1010.45 1010.45 1010.46 1009.98 1009.54 1009.07
1010.74 1010.91 1011.14 1011.38 1011.82 1012.05 1012.41 1012.69 1012.87 1012.93 1012.83 1012.55 1012.41 1012.07 1011.55 1011.33 1011.39 1011.87 1013.04 1012.84 1012.76 1012.73 1012.50 1011.90 1011.60 1011.28 1011.73 1011.84 1011.75 1011.54 1011.09 1010.87 1010.59 1010.21 1010.07 1010.11 1009.95 1009.85 1009.65 1009.70 1009.65 1009.49 1009.20
1010.69 1011.16 1011.57 1011.71 1012.24 1012.38 1012.57 1012.78 1012.85 1012.81 1012.54 1012.21 1012.00 1011.55 1011.01 1011.14 1011.79 1012.99 1013.36 1013.54 1013.50 1013.09 1012.52 1011.92 1011.70 1011.87 1011.78 1011.53 1011.28 1011.00 1010.57 1010.35 1010.14 1010.04 1009.94 1009.96 1009.68 1009.46 1009.13 1008.99 1008.85 1009.03 1008.88
1011.03 1011.64 1012.03 1011.91 1012.43 1012.49 1012.55 1012.65 1012.52 1012.32 1012.06 1011.77 1011.51 1011.39 1011.26 1012.07 1012.46 1013.17 1013.32 1013.60 1013.54 1013.21 1012.77 1012.37 1012.09 1011.87 1011.44 1011.00 1010.66 1010.33 1010.07 1009.68 1009.58 1009.59 1009.60 1009.56 1009.43 1009.23 1009.14 1009.01 1008.63 1008.40 1008.09
1011.53 1011.93 1012.30 1012.12 1012.43 1012.69 1012.59 1012.44 1012.16 1011.87 1011.56 1011.55 1011.68 1011.80 1011.87 1012.06 1013.13 1013.45 1013.61 1013.60 1013.47 1013.17 1012.82 1012.38 1011.93 1011.46 1011.03 1010.54 1010.18 1009.94 1009.65 1009.32 1009.21 1009.23 1009.27 1009.30 1009.22 1009.24 1009.17 1008.87 1008.32 1007.82 1007.51
1011.84 1012.02 1012.42 1012.38 1012.20 1012.78 1012.48 1012.05 1011.76 1011.74 1011.75 1011.73 1011.94 1012.13 1012.42 1012.92 1013.82 1014.16 1014.05 1013.79 1013.58 1013.20 1012.75 1012.13 1011.59 1011.31 1010.93 1010.55 1010.23 1009.96 1009.61 1009.37 1009.07 1009.10 1009.21 1009.30 1009.31 1009.30 1009.12 1008.90 1008.47 1007.79 1007.42
1011.76 1012.05 1012.09 1011.52 1012.33 1011.93 1011.93 1011.66 1011.45 1011.44 1011.91 1012.37 1013.00 1013.35 1013.89 1014.63 1015.11 1015.06 1014.66 1014.19 1013.83 1013.38 1012.73 1011.93 1011.46 1011.20 1010.94 1010.73 1010.39 1010.02 1009.81 1009.55 1009.24 1009.25 1009.28 1009.38 1009.46 1009.39 1009.19 1008.92 1008.43 1007.83 1007.56
1012.16 1012.58 1012.39 1012.08 1011.69 1011.68 1011.63 1011.36 1011.43 1011.82 1012.88 1013.39 1013.87 1014.33 1014.84 1015.45 1015.27 1014.83 1014.52 1014.15 1013.66 1013.18 1012.56 1012.20 1011.93 1011.64 1011.36 1011.03 1010.68 1010.35 1010.14 1009.91 1009.75 1009.55 1009.53 1009.47 1009.60 1009.51 1009.35 1008.99 1008.47 1007.95 1007.72
1012.35 1012.23 1012.32 1012.22 1011.93 1011.68 1011.56 1011.44 1011.58 1013.32 1013.56 1014.10 1014.50 1015.18 1015.55 1015.35 1015.02 1014.82 1014.53 1014.08 1013.60 1013.25 1012.90 1012.57 1012.24 1011.90 1011.62 1011.35 1011.05 1010.73 1010.44 1010.23 1010.18 1009.93 1009.78 1009.78 1009.71 1009.64 1009.48 1009.13 1008.57 1008.14 1008.17
1012.58 1012.72 1012.14 1011.96 1011.61 1011.67 1011.49 1011.50 1011.76 1012.40 1013.63 1014.45 1014.99 1015.28 1015.41 1014.94 1015.07 1014.96 1014.57 1013.99 1013.59 1013.23 1013.03 1012.73 1012.41 1012.11 1011.85 1011.52 1011.21 1010.92 1010.71 1010.37 1010.21 1010.06 1009.97 1009.96 1009.89 1009.77 1009.57 1009.04 1008.77 1008.70 1008.59
1012.66 1012.57 1012.67 1012.04 1011.62 1011.70 1011.75 1011.81 1012.11 1012.76 1013.51 1014.09 1014.53 1015.17 1015.47 1015.55 1015.21 1015.01 1014.71 1014.31 1013.81 1013.39 1013.08 1012.75 1012.48 1012.19 1011.91 1011.63 1011.34 1011.08 1010.84 1010.60 1010.39 1010.08 1010.07 1010.12 1010.06 1009.85 1009.54 1009.28 1009.03 1008.73 1008.65
1012.79 1012.69 1012.68 1012.35 1011.83 1012.08 1012.21 1012.20 1012.51 1013.35 1013.99 1014.72 1015.41 1016.08 1016.13 1015.68 1015.28 1015.05 1014.77 1014.35 1013.89 1013.48 1013.07 1012.70 1012.37 1012.11 1011.83 1011.63 1011.45 1011.24 1010.93 1010.59 1010.43 1010.29 1010.30 1010.28 1010.15 1009.93 1009.58 1009.34 1009.01 1008.81 1008.76
1012.49 1012.51 1012.60 1012.17 1012.32 1012.68 1012.59 1012.66 1013.27 1014.04 1014.80 1015.33 1015.92 1016.56 1016.58 1016.22 1015.75 1015.36 1014.95 1014.44 1014.01 1013.55 1013.08 1012.62 1012.20 1011.90 1011.68 1011.49 1011.48 1011.38 1011.08 1010.82 1010.69 1010.61 1010.54 1010.38 1010.23 1009.92 1009.65 1009.37 1009.04 1009.06 1009.08
1011.97 1012.39 1012.64 1012.71 1012.83 1013.04 1013.05 1013.38 1014.12 1014.96 1015.66 1016.18 1016.63 1016.86 1016.74 1016.43 1016.03 1015.62 1015.16 1014.64 1014.15 1013.69 1013.17 1012.69 1012.25 1011.94 1011.79 1011.59 1011.54 1011.53 1011.30 1011.17 1011.04 1010.92 1010.78 1010.67 1010.32 1010.05 1009.74 1009.45 1009.41 1009.53 1009.58
1012.15 1012.43 1012.75 1013.25 1013.12 1013.39 1013.62 1014.31 1015.24 1015.90 1016.41 1017.03 1017.35 1017.27 1017.01 1016.74 1016.39 1015.93 1015.46 1014.92 1014.29 1013.71 1013.17 1012.75 1012.44 1012.20 1012.13 1011.95 1011.94 1011.79 1011.58 1011.49 1011.42 1011.25 1011.17 1010.94 1010.67 1010.37 1010.07 1009.91 1009.96 1010.06 1010.16
1012.90 1013.04 1013.10 1013.32 1013.73 1013.83 1014.55 1015.35 1016.10 1016.69 1017.22 1017.71 1017.80 1017.62 1017.38 1017.07 1016.69 1016.23 1015.74 1015.12 1014.47 1013.85 1013.28 1013.04 1012.83 1012.49 1012.40 1012.35 1012.27 1012.17 1012.06 1011.86 1011.46 1011.47 1011.41 1011.23 1011.01 1010.71 1010.46 1010.51 1010.52 1010.67 1010.74
1013.38 1013.48 1013.63 1013.89 1014.02 1014.48 1015.30 1016.18 1016.83 1017.10 1017.85 1018.29 1018.17 1017.87 1017.62 1017.25 1016.86 1016.43 1015.96 1015.33 1014.71 1014.11 1013.73 1013.51 1013.31 1013.09 1012.93 1012.77 1012.67 1012.63 1012.56 1012.30 1012.02 1011.85 1011.61 1011.38 1011.14 1011.01 1011.01 1010.98 1011.08 1011.23 1011.24
1013.98 1014.00 1014.35 1014.43 1014.57 1015.11 1015.93 1016.87 1017.19 1017.73 1018.31 1018.58 1018.43 1018.10 1017.81 1017.47 1017.13 1016.74 1016.25 1015.62 1015.04 1014.54 1014.16 1013.82 1013.60 1013.43 1013.39 1013.36 1013.33 1013.17 1012.93 1012.68 1012.45 1012.22 1011.86 1011.48 1011.41 1011.46 1011.49 1011.49 1011.52 1011.63 1011.62
Wind_Speed
8 8 7 5 6 6 5 4 4 4 3 4 5 5 5 5 5 5 5 7 9 7 3 4 4 4 2 3 4 5 5 6 9 8 8 9 10 6 6 6 8 7 8
8 7 7 6 6 5 4 4 4 4 5 4 4 5 5 5 5 4 5 7 7 5 3 4 5 3 3 3 4 6 5 7 7 11 7 7 10 7 6 6 5 7 8
9 8 6 6 6 5 5 5 4 4 4 4 4 5 6 5 5 5 6 6 6 3 5 5 5 3 5 4 5 5 5 6 6 5 8 8 8 7 3 4 5 8 6
8 8 7 6 6 6 5 4 4 4 4 4 5 5 5 6 6 6 6 5 6 6 8 8 6 5 5 5 5 3 5 4 6 5 6 7 8 8 3 5 6 6 8
9 7 6 6 6 4 4 4 5 2 3 4 5 5 5 5 7 3 3 5 6 7 9 9 7 6 12 8 4 4 5 5 5 6 6 7 8 7 7 5 6 7 7
7 6 8 8 6 5 4 5 3 4 3 4 5 6 6 6 4 3 5 5 6 7 8 9 10 14 10 7 12 12 8 6 7 6 6 7 9 8 7 6 7 7 7
7 8 7 6 6 5 5 5 2 2 3 4 5 6 6 6 8 7 3 3 4 6 8 7 6 6 9 10 8 9 11 13 14 9 9 7 9 7 6 6 8 9 8
7 7 7 7 6 5 4 3 2 3 4 4 5 6 6 1 11 11 10 6 5 7 6 6 5 5 5 6 9 10 9 7 6 5 7 6 7 7 6 7 9 9 7
8 6 7 6 6 4 4 2 2 3 4 4 6 6 6 6 13 14 8 4 7 6 7 6 4 5 2 6 5 8 11 8 7 10 9 9 10 11 10 5 6 5 6
7 5 3 2 1 0 2 3 3 4 5 3 6 8 11 9 8 11 3 6 10 9 11 10 11 5 8 7 5 6 9 10 8 6 3 6 8 6 12 8 6 6 4
3 5 1 5 2 0 1 2 3 4 5 6 9 10 11 5 7 12 7 7 6 8 9 9 7 11 13 14 12 9 10 10 10 8 4 5 6 5 6 4 6 5 5
6 3 5 3 3 3 2 2 5 6 7 10 7 4 6 10 14 6 7 5 7 8 8 6 8 17 18 16 12 11 13 12 5 5 4 4 5 4 4 6 5 4 7
4 5 3 2 2 3 3 5 6 6 4 5 6 6 6 7 6 7 5 10 12 9 8 13 17 15 14 11 10 11 9 3 3 4 3 3 2 3 4 6 7 8 7
5 5 1 2 3 4 4 6 3 4 3 4 5 5 7 8 9 9 9 9 11 9 12 10 11 11 9 7 8 6 4 4 3 1 2 1 2 2 3 4 6 7 3
5 4 3 3 5 5 6 5 3 2 5 5 6 8 8 8 8 6 7 8 8 9 12 7 5 5 6 5 5 5 5 5 4 2 1 1 1 3 3 4 5 5 3
4 2 1 3 2 4 3 4 2 6 16 16 17 13 7 6 7 9 11 14 15 13 6 6 5 6 6 7 6 5 4 6 4 3 2 1 1 2 3 5 6 3 2
3 3 2 4 4 3 3 4 5 10 13 14 15 13 6 4 7 14 13 16 10 10 5 6 5 6 6 6 5 5 4 3 3 4 2 2 1 1 3 4 4 2 3
2 3 2 2 3 3 4 5 6 6 8 5 5 10 5 17 13 12 13 10 7 5 5 6 6 6 5 5 4 4 3 4 2 3 1 1 2 1 2 3 3 3 3
3 1 4 4 3 4 6 6 6 8 7 7 6 4 14 15 9 10 10 6 6 6 6 6 6 5 5 5 4 4 4 3 3 2 3 1 1 1 3 2 3 3 1
3 1 3 6 6 7 6 6 7 8 8 7 7 8 9 8 8 8 7 7 7 6 6 6 6 5 5 4 4 3 3 3 3 3 3 1 1 2 2 3 3 2 4
4 3 2 3 7 7 6 6 9 8 7 8 8 8 8 7 7 7 7 7 7 7 7 7 6 5 4 3 2 3 3 3 3 3 2 2 2 2 2 3 3 5 5
4 4 6 6 6 6 6 9 9 9 9 9 7 8 9 7 7 7 7 7 7 7 6 6 6 5 5 4 3 2 2 4 3 3 3 3 3 3 3 3 5 5 6
3 6 7 6 5 7 8 10 9 9 9 8 7 7 8 7 7 8 8 8 7 7 7 5 5 4 4 4 4 3 4 4 2 3 3 3 3 3 4 5 5 6 5
5 6 6 7 6 8 9 9 7 9 9 8 7 7 7 7 7 8 8 8 7 8 6 6 6 9 4 4 3 4 5 5 3 4 3 3 3 4 4 5 5 5 4
6 6 6 6 7 9 9 9 8 8 8 7 6 6 7 7 7 8 8 8 7 7 7 6 6 7 9 10 9 8 6 6 5 5 3 4 4 5 5 5 6 4 3
5 7 7 7 7 9 9 8 8 8 7 6 6 6 7 7 7 7 8 8 8 7 8 5 7 10 9 7 7 6 5 5 5 5 4 3 4 4 4 5 7 4 3
Wind_Direction
172 170 152 146 133 130 146 164 149 162 190 207 226 231 236 243 246 244 247 258 257 254 192 225 245 259 265 288 299 296 297 299 291 294 291 297 308 291 288 293 297 293 293
167 157 149 155 135 149 174 175 171 179 221 229 253 259 266 268 262 265 266 275 278 266 252 254 260 257 274 273 279 287 297 287 284 282 289 297 304 298 288 282 294 299 287
161 148 156 143 152 174 200 187 174 215 235 259 295 296 287 285 292 279 263 273 282 333 300 289 276 255 258 264 272 289 296 283 286 297 301 303 299 298 301 295 313 307 305
155 161 150 169 176 194 188 187 202 225 256 282 281 286 290 295 297 287 288 317 344 334 318 295 272 253 258 248 271 280 276 303 297 293 297 304 301 303 311 317 322 309 312
165 151 161 183 207 187 191 206 223 243 272 294 286 297 300 293 281 27 331 322 330 321 306 307 316 302 284 257 238 263 273 277 285 291 287 291 299 317 319 323 315 312 310
151 170 183 183 195 194 193 227 222 239 279 298 315 300 294 291 174 88 33 1 328 314 311 306 308 301 296 251 221 236 245 255 266 274 282 289 294 303 315 319 316 327 324
166 200 189 182 202 191 209 228 236 302 304 284 284 287 288 285 114 110 134 273 285 282 288 296 323 344 340 319 273 249 246 248 248 255 261 271 289 298 311 319 316 311 309
199 201 187 190 214 187 207 232 235 247 267 283 289 280 277 277 162 183 199 230 249 265 267 291 289 306 330 4 327 294 270 264 260 246 234 254 275 293 292 295 293 287 292
200 209 198 180 203 182 220 229 317 297 313 305 276 290 291 281 186 205 199 271 291 325 326 325 310 302 354 5 348 329 308 286 296 254 239 263 271 271 265 283 278 301 307
201 227 84 217 204 77 19 11 351 310 289 311 303 277 267 263 202 195 41 336 3 351 329 319 318 321 34 17 343 304 288 280 296 298 304 302 281 279 267 242 261 277 287
147 80 149 90 59 297 67 287 306 296 290 274 269 273 278 359 92 93 82 24 352 324 318 315 351 1 334 318 306 297 276 271 265 270 275 279 287 285 287 282 228 229 263
83 110 79 106 317 59 27 307 269 259 260 268 268 342 10 90 116 150 143 10 351 341 326 324 316 319 310 308 307 292 294 282 248 242 244 257 269 286 330 321 290 251 244
110 100 129 100 11 342 282 257 263 272 274 352 7 352 2 14 70 63 146 6 6 341 320 315 310 304 305 300 307 305 306 276 222 224 231 255 321 353 316 303 303 297 259
127 131 145 53 59 280 276 276 332 315 327 330 345 358 8 30 24 359 354 348 341 331 327 311 307 304 321 331 338 346 323 335 306 182 230 330 342 296 306 305 308 296 315
140 161 188 165 212 249 250 258 283 12 32 25 36 48 32 19 360 325 332 341 333 324 319 310 334 339 340 345 345 332 344 357 14 7 304 308 22 308 316 313 304 299 301
143 221 221 332 305 291 297 349 210 85 87 83 71 60 53 48 323 329 341 335 330 334 331 347 342 344 343 344 343 349 350 357 10 354 337 350 59 314 319 308 290 327 340
103 98 310 274 265 4 358 340 346 84 74 97 103 99 86 309 353 2 342 336 334 341 349 343 338 341 339 341 341 344 349 355 356 329 356 17 0 352 307 307 324 355 43
115 243 316 303 41 343 341 12 21 17 93 120 137 84 18 23 3 346 339 335 349 351 349 339 336 337 336 337 337 345 346 338 354 346 71 4 32 348 311 314 2 20 5
272 83 329 295 78 21 20 21 19 54 36 37 42 10 18 352 352 339 338 349 340 343 339 334 329 327 326 330 340 339 343 350 329 8 90 61 18 318 302 27 335 311 306
78 56 276 299 48 36 9 21 33 45 38 47 43 21 0 343 357 349 346 343 344 342 334 329 325 321 319 325 337 342 334 343 26 51 67 47 346 320 2 360 346 25 81
179 202 246 52 51 40 5 27 55 47 26 39 31 30 0 348 346 342 340 343 343 338 333 329 328 324 323 318 351 359 7 9 46 42 45 39 338 357 0 323 8 75 81
80 62 65 30 63 37 12 53 44 55 28 34 20 6 350 352 347 345 343 343 342 335 328 330 337 347 359 1 54 31 8 46 38 28 45 2 21 9 333 5 77 79 83
71 76 87 56 19 58 44 56 49 34 40 35 17 358 353 352 349 348 343 341 341 336 337 346 349 9 16 36 52 10 34 49 38 6 44 18 12 360 354 60 69 78 79
70 64 54 72 46 60 49 50 53 52 39 33 8 360 354 349 348 348 345 340 342 340 353 13 24 23 68 61 56 41 19 356 359 67 46 19 9 341 65 72 76 76 74
67 65 64 57 49 58 57 63 40 49 48 19 4 360 352 350 352 353 345 342 344 349 23 28 31 37 51 68 61 44 17 10 30 9 0 348 360 67 72 87 98 90 78
71 74 61 45 57 67 64 58 46 56 48 13 1 358 357 356 353 353 347 346 351 5 11 37 50 59 60 47 34 18 8 3 3 348 339 349 58 68 69 85 105 97 97